FDX5023 EBLG-KMEM

Flight info

Callsign FDX5023
Flight time N/A
Altitude 32000
Route BUB L608 DENUT L610 KOPUL Q60 OKSAW DCT BIBPE DCT OKTAD DCT MEDOG/N0478F340 DCT PEMOB DCT BAKUR DCT VENER/M083F340 DCT 55N020W 5530N03000W 5530N04000W 54N050W DCT NEEKO/N0478F340 N624C ANATI/N0475F360 DCT POLTY/N0474F380 Q804 DERLO Q907 SVM DCT FWA DCT VHP DCT PXV BLUZZ5
Aircraft MD11/H-SDE1E2E3FGHIJ2J3J4J5M1RWXY/LB1D1

Departure

Time 2026-04-25 12:06
Airport Liège Airport (EBLG)

Arrival

Time N/A
Airport Memphis International Airport (KMEM)
Time Latitude Longitude Altitude Speed Heading
2026-04-25 11:14 50.64032 5.43727 646 ft 0 kts 316°
2026-04-25 11:48 50.64030 5.43731 646 ft 3 kts 316°
2026-04-25 11:48 50.64011 5.43760 647 ft 4 kts 316°
2026-04-25 11:49 50.63995 5.43785 647 ft 4 kts 311°
2026-04-25 11:49 50.63981 5.43819 646 ft 4 kts 281°
2026-04-25 11:49 50.63982 5.43859 646 ft 4 kts 244°
2026-04-25 11:49 50.63996 5.43892 646 ft 2 kts 226°
2026-04-25 11:50 50.63998 5.43894 647 ft 5 kts 226°
2026-04-25 11:54 50.63979 5.43864 648 ft 5 kts 225°
2026-04-25 11:55 50.63948 5.43812 646 ft 8 kts 226°
2026-04-25 11:55 50.63902 5.43737 648 ft 11 kts 226°
2026-04-25 11:55 50.63841 5.43640 648 ft 14 kts 223°
2026-04-25 11:55 50.63756 5.43563 646 ft 15 kts 216°
2026-04-25 11:56 50.63683 5.43471 646 ft 10 kts 206°
2026-04-25 11:56 50.63637 5.43486 649 ft 5 kts 149°
2026-04-25 11:56 50.63594 5.43550 642 ft 13 kts 135°
2026-04-25 11:56 50.63512 5.43678 645 ft 19 kts 135°
2026-04-25 11:57 50.63423 5.43816 647 ft 16 kts 136°
2026-04-25 11:57 50.63326 5.43863 648 ft 16 kts 186°
2026-04-25 11:57 50.63231 5.43835 648 ft 10 kts 176°
2026-04-25 11:57 50.63205 5.43883 647 ft 2 kts 92°
2026-04-25 11:58 50.63212 5.43924 647 ft 4 kts 68°
2026-04-25 11:58 50.63237 5.43977 647 ft 8 kts 49°
2026-04-25 11:58 50.63283 5.44052 647 ft 11 kts 45°
2026-04-25 11:58 50.63343 5.44143 649 ft 13 kts 43°
2026-04-25 11:59 50.63428 5.44275 644 ft 21 kts 46°
2026-04-25 11:59 50.63541 5.44458 637 ft 25 kts 45°
2026-04-25 11:59 50.63663 5.44650 625 ft 23 kts 45°
2026-04-25 12:00 50.63873 5.44984 624 ft 19 kts 45°
2026-04-25 12:00 50.63960 5.45120 636 ft 16 kts 46°
2026-04-25 12:00 50.64100 5.45344 629 ft 14 kts 46°
2026-04-25 12:01 50.64175 5.45461 625 ft 16 kts 44°
2026-04-25 12:01 50.64254 5.45591 629 ft 17 kts 45°
2026-04-25 12:01 50.64339 5.45724 633 ft 16 kts 44°
2026-04-25 12:01 50.64409 5.45837 636 ft 13 kts 46°
2026-04-25 12:02 50.64538 5.46040 633 ft 14 kts 45°
2026-04-25 12:02 50.64611 5.46152 634 ft 15 kts 43°
2026-04-25 12:02 50.64681 5.46274 636 ft 15 kts 45°
2026-04-25 12:03 50.64761 5.46391 634 ft 16 kts 42°
2026-04-25 12:03 50.64839 5.46517 635 ft 16 kts 46°
2026-04-25 12:03 50.64899 5.46612 634 ft 8 kts 40°
2026-04-25 12:03 50.64932 5.46625 627 ft 2 kts 349°
2026-04-25 12:04 50.64952 5.46612 629 ft 4 kts 337°
2026-04-25 12:04 50.64978 5.46580 623 ft 6 kts 320°
2026-04-25 12:04 50.65017 5.46516 626 ft 8 kts 306°
2026-04-25 12:04 50.65018 5.46445 623 ft 6 kts 252°
2026-04-25 12:05 50.64993 5.46396 622 ft 0 kts 226°
2026-04-25 12:05 50.64979 5.46373 622 ft 10 kts 225°
2026-04-25 12:05 50.64757 5.46026 627 ft 85 kts 226°
2026-04-25 12:06 50.64176 5.45102 603 ft 153 kts 225°
2026-04-25 12:06 50.63317 5.43746 696 ft 189 kts 225°
2026-04-25 12:06 50.62371 5.42308 1315 ft 188 kts 224°
2026-04-25 12:06 50.61461 5.40922 2252 ft 180 kts 225°
2026-04-25 12:07 50.60556 5.39449 2751 ft 189 kts 232°
2026-04-25 12:07 50.59825 5.37739 3373 ft 190 kts 247°
2026-04-25 12:07 50.59461 5.35750 3885 ft 195 kts 265°
2026-04-25 12:07 50.59581 5.33499 4042 ft 221 kts 289°
2026-04-25 12:08 50.60215 5.31175 4243 ft 243 kts 297°
2026-04-25 12:08 50.61029 5.28692 4352 ft 267 kts 298°
2026-04-25 12:08 50.61920 5.26028 4944 ft 277 kts 298°
2026-04-25 12:08 50.62829 5.23326 5840 ft 281 kts 299°
2026-04-25 12:09 50.63770 5.20604 6708 ft 284 kts 300°
2026-04-25 12:09 50.64753 5.17886 7550 ft 287 kts 301°
2026-04-25 12:09 50.65761 5.15146 8346 ft 291 kts 300°
2026-04-25 12:09 50.66782 5.12375 9124 ft 294 kts 301°
2026-04-25 12:10 50.67825 5.09585 9872 ft 296 kts 302°
2026-04-25 12:10 50.68940 5.06761 10247 ft 315 kts 302°
2026-04-25 12:10 50.70163 5.03738 10395 ft 340 kts 303°
2026-04-25 12:10 50.71458 5.00552 10973 ft 347 kts 303°
2026-04-25 12:11 50.72767 4.97330 11749 ft 349 kts 302°
2026-04-25 12:11 50.74083 4.94085 12471 ft 352 kts 302°
2026-04-25 12:11 50.75399 4.90834 13160 ft 355 kts 302°
2026-04-25 12:11 50.76733 4.87532 13842 ft 358 kts 302°
2026-04-25 12:12 50.78080 4.84192 14458 ft 361 kts 302°
2026-04-25 12:12 50.78976 4.81972 14884 ft 363 kts 302°
2026-04-25 12:12 50.80797 4.77449 15659 ft 367 kts 302°
2026-04-25 12:12 50.82173 4.74024 16239 ft 369 kts 302°
2026-04-25 12:13 50.83555 4.70581 16794 ft 372 kts 302°
2026-04-25 12:13 50.84947 4.67107 17302 ft 375 kts 302°
2026-04-25 12:13 50.86346 4.63614 17837 ft 377 kts 302°
2026-04-25 12:13 50.87755 4.60090 18327 ft 380 kts 302°
2026-04-25 12:14 50.89175 4.56536 18814 ft 383 kts 302°
2026-04-25 12:14 50.90584 4.52951 19289 ft 385 kts 301°
2026-04-25 12:14 50.91980 4.49319 19750 ft 387 kts 301°
2026-04-25 12:14 50.93377 4.45657 20205 ft 389 kts 301°
2026-04-25 12:15 50.94778 4.41981 20634 ft 391 kts 301°
2026-04-25 12:15 50.96189 4.38281 21058 ft 393 kts 301°
2026-04-25 12:15 50.97607 4.34566 21491 ft 395 kts 301°
2026-04-25 12:15 50.99034 4.30825 21943 ft 397 kts 301°
2026-04-25 12:16 51.00468 4.27064 22362 ft 400 kts 301°
2026-04-25 12:16 51.01868 4.23393 22748 ft 402 kts 301°
2026-04-25 12:16 51.03315 4.19590 23197 ft 404 kts 301°
2026-04-25 12:16 51.04773 4.15756 23593 ft 407 kts 301°
2026-04-25 12:17 51.06233 4.11904 24030 ft 409 kts 301°
2026-04-25 12:17 51.07705 4.08021 24445 ft 411 kts 301°
2026-04-25 12:17 51.09186 4.04106 24878 ft 413 kts 301°
2026-04-25 12:17 51.10672 4.00173 25256 ft 416 kts 301°
2026-04-25 12:18 51.12164 3.96218 25671 ft 419 kts 301°
2026-04-25 12:18 51.13667 3.92226 26098 ft 420 kts 301°
2026-04-25 12:18 51.15151 3.88279 26472 ft 423 kts 301°
2026-04-25 12:18 51.16668 3.84237 26893 ft 425 kts 301°
2026-04-25 12:19 51.19213 3.77437 27503 ft 428 kts 301°
2026-04-25 12:19 51.21258 3.71965 27983 ft 432 kts 301°
2026-04-25 12:19 51.22754 3.67885 28334 ft 433 kts 298°
2026-04-25 12:20 51.23969 3.63462 28677 ft 435 kts 289°
2026-04-25 12:20 51.24776 3.58781 29015 ft 438 kts 284°
2026-04-25 12:20 51.25398 3.54007 29362 ft 441 kts 282°
2026-04-25 12:20 51.25966 3.49191 29665 ft 443 kts 282°
2026-04-25 12:21 51.26540 3.44343 29998 ft 445 kts 282°
2026-04-25 12:21 51.27130 3.39489 30289 ft 447 kts 282°
2026-04-25 12:21 51.27736 3.34615 30601 ft 447 kts 282°
2026-04-25 12:21 51.28350 3.29758 30971 ft 447 kts 282°
2026-04-25 12:22 51.28970 3.24901 31342 ft 445 kts 282°
2026-04-25 12:22 51.29590 3.20060 31715 ft 444 kts 282°
2026-04-25 12:22 51.30208 3.15236 32078 ft 443 kts 282°
2026-04-25 12:22 51.30825 3.10394 32199 ft 445 kts 282°
2026-04-25 12:23 51.31445 3.05533 32231 ft 448 kts 282°
2026-04-25 12:23 51.32682 2.95767 32238 ft 449 kts 282°
2026-04-25 12:24 51.33913 2.85979 32239 ft 449 kts 282°
2026-04-25 12:24 51.35133 2.76178 32239 ft 449 kts 282°
2026-04-25 12:25 51.36329 2.66365 32238 ft 449 kts 282°
2026-04-25 12:25 51.37527 2.56558 32236 ft 449 kts 282°
2026-04-25 12:26 51.38727 2.46748 32233 ft 449 kts 281°
2026-04-25 12:26 51.39919 2.36945 32229 ft 449 kts 281°
2026-04-25 12:27 51.41103 2.27135 32227 ft 449 kts 281°
2026-04-25 12:27 51.42288 2.17302 32229 ft 449 kts 281°
2026-04-25 12:28 51.43279 2.09139 32225 ft 449 kts 281°
2026-04-25 12:28 51.44469 1.99322 32216 ft 448 kts 281°
2026-04-25 12:29 51.45629 1.89490 32212 ft 449 kts 281°
2026-04-25 12:29 51.46771 1.79651 32208 ft 449 kts 281°
2026-04-25 12:30 51.47906 1.69802 32208 ft 450 kts 281°
2026-04-25 12:30 51.49038 1.59931 32221 ft 450 kts 280°
2026-04-25 12:31 51.50156 1.50040 32217 ft 450 kts 280°
2026-04-25 12:31 51.51271 1.40152 32217 ft 451 kts 280°
2026-04-25 12:32 51.52381 1.30248 32221 ft 451 kts 280°
2026-04-25 12:32 51.53396 1.20305 32222 ft 451 kts 277°
2026-04-25 12:33 51.54076 1.10287 32215 ft 452 kts 276°
2026-04-25 12:33 51.54738 1.00245 32215 ft 452 kts 276°
2026-04-25 12:34 51.55438 0.90190 32208 ft 453 kts 276°
2026-04-25 12:34 51.56150 0.80138 32215 ft 453 kts 276°
2026-04-25 12:35 51.56856 0.70067 32213 ft 454 kts 276°
2026-04-25 12:35 51.57553 0.59976 32207 ft 454 kts 276°
2026-04-25 12:36 51.58241 0.49875 32211 ft 455 kts 275°
2026-04-25 12:36 51.58920 0.39767 32221 ft 456 kts 275°
2026-04-25 12:37 51.59593 0.29625 32212 ft 456 kts 275°
2026-04-25 12:37 51.60259 0.19486 32214 ft 456 kts 275°
2026-04-25 12:38 51.60914 0.09349 32211 ft 456 kts 275°
2026-04-25 12:38 51.61562 -0.00795 32212 ft 456 kts 275°
2026-04-25 12:39 51.62175 -0.10985 32209 ft 460 kts 274°
2026-04-25 12:39 51.62764 -0.21237 32209 ft 460 kts 275°